Probability
0 0 0 0 0 0 0 0 0 0 0 0 0 0 0 0 0 0 0 0 0 0 0 0 0 0 0 0 0 0 0 0 0 0 0 0 0 0 0 0 0 0 0
0 0 0 0 0 0 0 0 0 0 0 0 0 0 0 0 0 0 0 0 0 0 0 0 0 0 0 0 0 0 0 0 0 0 0 0 0 0 0 0 0 0 0
0 0 0 0 0 0 0 0 0 0 0 0 0 0 0 0 0 0 0 0 0 0 0 0 0 0 0 0 0 0 0 0 0 0 0 0 0 0 0 0 0 0 0
0 0 0 0 0 0 0 0 0 0 0 0 0 0 0 0 0 0 0 0 0 0 0 0 0 0 0 0 0 0 0 0 0 0 0 0 0 0 0 0 0 0 0
0 0 0 0 0 0 0 0 0 0 0 0 0 0 0 0 0 0 0 0 0 0 0 0 0 0 0 0 0 0 0 0 0 0 0 0 0 0 0 0 0 0 0
0 0 0 0 0 0 0 0 0 0 0 0 0 0 0 0 0 0 0 0 0 0 0 0 0 0 0 0 0 0 0 0 0 0 0 0 0 0 0 0 0 0 0
0 0 0 0 0 0 0 0 0 0 0 0 0 0 0 0 0 0 0 0 0 0 0 0 0 0 0 0 0 0 0 0 0 0 0 0 0 0 0 0 0 0 0
0 0 0 0 0 0 0 0 0 0 0 0 0 0 0 0 0 0 0 0 0 0 0 0 0 0 0 0 0 0 0 0 0 0 0 0 0 0 0 0 0 0 0
0 0 0 0 0 0 0 0 0 0 0 0 0 0 0 0 0 0 0 0 0 0 0 0 0 0 0 0 0 0 0 0 0 0 0 0 0 0 0 0 0 0 0
0 0 0 0 0 0 0 0 0 0 0 0 0 0 0 0 0 0 0 0 0 0 0 0 0 0 0 0 0 0 0 0 0 0 0 0 0 0 0 0 0 0 0
0 0 0 0 0 0 0 0 0 0 0 0 0 0 0 0 0 0 0 0 0 0 0 0 0 0 0 0 0 0 0 0 0 0 0 0 0 0 0 0 0 0 0
0 0 0 0 0 0 0 0 0 0 0 0 0 0 0 0 0 0 0 0 0 0 0 0 0 0 0 0 0 0 0 0 0 0 0 0 0 0 0 0 0 0 0
0 0 0 0 0 0 0 0 0 0 0 0 0 0 0 0 0 0 0 0 0 0 0 0 0 0 0 0 0 0 0 0 0 0 0 0 0 0 0 0 0 0 0
0 0 0 0 0 0 0 0 0 0 0 0 0 0 0 0 0 0 0 0 0 0 0 0 0 0 0 0 0 0 0 0 0 0 0 0 0 0 0 0 0 0 0
0 0 0 0 0 0 0 0 0 0 0 0 0 0 0 0 0 0 0 0 0 0 0 0 0 0 0 0 0 0 0 0 0 0 0 0 0 0 0 0 0 0 0
0 0 0 0 0 0 0 0 0 0 0 0 0 0 0 0 0 0 0 0 0 0 0 0 0 0 0 0 0 0 0 0 0 0 0 0 0 0 0 0 0 0 0
0 0 0 0 0 0 0 0 0 0 0 0 0 0 0 0 0 0 0 0 0 0 0 0 0 0 0 0 0 0 0 0 0 0 0 0 0 0 0 0 0 0 0
0 0 0 0 0 0 0 0 0 0 0 0 0 0 0 0 0 0 0 0 0 0 0 0 0 0 0 0 0 0 0 0 0 0 0 0 0 0 0 0 0 0 0
0 0 0 0 0 0 0 0 0 0 0 0 0 0 0 0 0 0 0 0 0 0 0 0 0 0 0 0 0 0 0 0 0 0 0 0 0 0 0 0 0 0 0
0 0 0 0 0 0 0 0 0 0 0 0 0 0 0 0 0 0 0 0 0 0 0 0 0 0 0 0 0 0 0 0 0 0 0 0 0 0 0 0 0 0 0
0 0 0 0 0 0 0 0 0 0 0 0 0 0 0 0 0 0 0 0 0 0 0 0 0 0 0 0 0 0 0 0 0 0 0 0 0 0 0 0 0 0 0
0 0 0 0 0 0 0 0 0 0 0 0 0 0 0 0 0 0 0 0 0 0 0 0 0 0 0 0 0 0 0 0 0 0 0 0 0 0 0 0 0 0 0
0 0 0 0 0 0 0 0 0 0 0 0 0 0 0 0 0 0 0 0 0 0 0 0 0 0 0 0 0 0 0 0 0 0 0 0 0 0 0 0 0 0 0
0 0 0 0 0 0 0 0 0 0 0 0 0 0 0 0 0 0 0 0 0 0 0 0 0 0 0 0 0 0 0 0 0 0 0 0 0 0 0 0 0 0 0
0 0 0 0 0 0 0 0 0 0 0 0 0 0 0 0 0 0 0 0 0 0 0 0 0 0 0 0 0 0 0 0 0 0 0 0 0 0 0 0 0 0 0
0 0 0 0 0 0 0 0 0 0 0 0 0 0 0 0 0 0 0 0 0 0 0 0 0 0 0 0 0 0 0 0 0 0 0 0 0 0 0 0 0 0 0
Wind_Speed
7 6 5 5 5 4 3 4 3 2 2 2 2 2 2 1 1 1 1 0 0 0 0 1 0 0 0 0 1 1 1 2 1 2 1 1 1 1 1 1 1 2 3
7 7 6 5 4 4 4 4 4 3 2 3 2 2 2 2 1 1 1 1 1 1 1 0 1 0 1 0 1 1 0 1 2 1 1 1 1 1 1 1 1 1 2
7 7 6 5 5 5 5 4 3 3 2 2 2 2 2 2 2 2 2 1 2 2 2 1 1 1 1 1 1 1 0 0 1 1 1 1 1 1 1 1 2 1 2
7 7 7 7 7 6 5 4 4 3 2 2 2 2 2 2 1 1 1 1 1 1 2 2 2 2 3 2 1 1 1 1 1 0 1 1 1 2 1 1 2 2 2
8 8 8 7 6 5 5 4 4 3 3 2 2 1 1 1 2 2 1 1 1 1 1 1 2 3 4 3 2 2 2 1 1 0 0 1 1 1 1 1 1 2 2
9 9 8 7 6 6 6 5 4 3 2 2 2 2 1 1 2 3 3 2 1 1 1 1 1 1 2 2 3 4 4 3 2 1 1 0 1 1 1 1 0 1 2
9 9 8 8 7 7 6 5 5 4 3 2 2 2 2 2 1 2 3 2 1 1 1 0 0 0 1 1 1 2 1 1 2 3 2 2 2 2 1 1 1 2 3
9 9 8 8 8 7 6 6 5 4 4 3 3 3 2 2 2 2 3 2 1 1 1 1 1 0 0 2 2 2 1 1 0 1 2 2 1 1 2 2 2 2 2
9 9 9 9 8 8 7 7 5 4 4 3 3 3 3 2 2 3 4 2 2 1 0 0 1 1 1 3 3 2 1 2 2 2 2 2 3 2 1 1 1 1 2
10 10 9 9 10 10 9 7 5 4 5 4 3 3 3 2 2 4 5 3 2 1 1 1 2 3 2 4 3 3 2 0 2 3 4 5 4 5 5 2 1 0 1
7 8 8 9 10 9 8 6 6 5 5 4 4 3 2 3 3 4 6 3 3 3 1 1 1 3 4 4 4 2 2 2 1 2 2 3 3 3 4 3 1 0 0
5 7 8 9 9 8 8 7 6 6 6 5 4 2 1 2 2 3 6 6 5 4 2 1 0 3 4 4 3 3 4 4 2 2 2 2 2 2 3 3 3 2 1
5 7 7 8 7 7 8 8 6 6 6 5 4 4 2 1 2 4 6 7 6 3 2 3 2 3 4 3 4 5 4 3 2 2 2 1 1 1 2 2 3 3 3
5 6 6 7 7 6 6 7 7 7 7 6 6 5 4 3 2 2 2 3 4 3 2 3 5 6 4 3 4 3 2 2 2 2 1 1 1 2 2 2 2 3 3
4 5 5 6 7 6 5 5 7 7 9 9 7 7 7 6 7 9 6 4 4 3 4 2 2 2 2 2 2 2 2 2 2 1 1 1 2 2 2 2 2 2 2
4 4 4 5 5 6 5 3 1 4 8 11 11 10 6 8 11 11 10 9 8 8 6 3 2 2 2 2 2 2 2 2 1 1 1 1 1 1 2 2 2 2 2
5 5 4 5 6 7 7 7 5 2 3 7 11 13 11 11 12 12 10 9 8 9 4 4 3 3 3 2 2 2 1 1 1 1 1 1 1 1 1 1 2 2 2
5 6 6 5 7 8 8 8 8 8 6 3 5 10 12 12 12 12 11 8 4 3 3 4 4 4 3 3 3 2 2 1 1 1 1 1 1 1 1 1 1 2 2
6 5 5 5 5 7 7 7 7 8 7 5 3 5 9 10 10 10 10 5 5 4 4 4 4 4 3 3 3 2 2 2 2 1 1 1 0 0 1 1 2 3 3
6 9 7 5 5 6 7 8 8 8 8 8 8 7 6 6 5 5 4 4 5 5 5 4 4 4 4 4 3 3 2 2 2 1 1 0 0 0 1 2 2 2 3
6 7 9 6 6 7 8 9 9 9 9 9 8 9 14 8 8 7 6 5 5 6 5 5 4 4 4 4 3 3 3 2 2 2 1 1 0 1 1 2 2 3 3
6 6 6 7 7 7 8 9 9 10 10 10 7 8 16 7 7 6 6 6 5 5 5 5 5 4 4 4 4 4 3 3 2 2 1 1 1 1 1 2 2 3 3
6 7 7 6 7 9 9 8 9 10 10 9 9 9 9 8 7 7 7 6 5 5 5 5 5 4 3 3 3 4 4 4 3 3 2 1 1 1 2 3 4 4 5
6 7 8 7 7 7 8 8 9 10 10 10 10 9 9 9 8 8 7 6 6 5 5 5 5 6 6 4 3 3 3 3 3 2 3 2 2 2 3 3 4 5 6
6 6 7 7 7 7 7 8 8 9 10 10 10 9 9 8 8 8 7 7 7 7 7 6 5 6 7 6 5 4 5 6 4 2 2 2 3 3 4 5 5 6 6
6 6 6 6 6 6 7 7 8 8 9 9 9 9 9 9 8 8 8 7 7 6 6 5 6 7 7 5 6 7 7 6 4 4 2 2 3 4 4 5 7 7 8
Wind_Direction
191 192 189 198 202 200 206 219 222 226 219 213 207 196 186 186 169 148 185 180 153 300 288 150 212 198 92 45 79 91 113 145 189 288 296 315 343 354 343 323 280 243 237
191 188 193 200 196 198 213 221 219 226 232 225 212 199 197 190 172 172 198 195 194 214 236 180 247 160 132 110 106 109 147 172 172 251 310 326 317 299 303 297 297 260 241
186 186 192 197 196 203 214 217 215 217 228 231 202 202 204 199 187 197 197 201 213 218 215 211 230 166 182 175 143 137 138 88 147 172 289 306 308 322 341 317 315 318 278
184 185 192 200 200 203 207 207 206 203 203 206 208 201 199 191 181 192 184 184 210 231 224 220 217 194 195 192 178 173 148 92 86 110 291 319 315 316 1 332 328 326 311
183 189 200 201 196 195 197 202 202 198 197 191 182 196 202 190 202 193 190 178 196 256 266 240 226 204 194 183 167 170 154 135 108 111 324 348 331 345 324 301 293 308 297
187 196 197 191 188 190 195 192 186 191 192 170 175 182 196 227 211 182 167 173 182 182 238 282 271 216 195 172 154 149 153 157 168 165 182 231 284 277 270 281 291 351 309
193 196 192 187 187 192 190 182 186 191 186 180 184 175 189 239 229 184 168 155 163 182 193 220 266 81 157 133 134 111 91 122 160 166 175 226 246 246 226 259 232 222 242
195 197 194 188 190 188 182 187 192 185 184 188 188 185 189 240 234 191 148 124 120 142 175 182 169 224 139 140 123 96 56 20 336 172 183 227 240 239 215 222 237 261 279
198 199 196 190 188 184 187 192 188 178 184 190 187 184 184 237 222 167 140 123 109 66 27 124 158 166 159 129 123 115 65 0 19 60 82 43 18 14 57 72 33 35 322
208 204 196 189 187 189 192 190 182 176 184 182 182 183 181 202 190 163 148 134 128 112 55 51 94 112 113 122 132 136 126 334 21 30 32 24 22 22 35 61 115 117 282
209 199 192 189 190 190 187 182 175 174 169 173 177 185 185 194 188 169 156 146 154 144 124 68 50 81 93 106 125 139 148 134 84 69 54 36 27 22 18 18 19 107 187
198 196 194 192 192 187 179 181 175 169 169 176 173 179 200 210 189 168 158 154 149 144 154 170 150 91 88 91 97 103 98 91 83 78 68 47 28 8 358 360 1 8 7
203 203 202 194 192 181 179 180 175 172 173 180 177 183 196 202 195 169 156 151 149 145 161 163 137 96 83 77 80 83 81 85 90 85 76 40 352 339 354 357 360 8 7
214 214 202 191 188 184 182 180 179 180 181 183 184 185 185 186 187 169 152 145 139 129 115 110 97 86 78 76 69 62 65 90 104 105 98 30 2 12 18 10 2 0 7
225 218 207 196 187 184 185 188 188 194 188 184 188 181 177 192 202 183 167 166 166 160 131 98 82 78 74 62 62 64 64 70 74 73 73 47 26 20 7 1 10 15 15
231 222 212 201 188 178 170 158 175 187 192 189 180 174 185 187 178 179 175 171 166 155 134 132 138 136 134 129 115 90 72 77 86 92 84 74 48 25 5 360 11 17 356
236 228 218 205 193 184 178 174 169 136 149 175 179 178 176 175 176 174 170 164 160 148 135 151 157 160 156 148 141 136 132 119 108 101 94 80 62 34 22 4 358 355 339
247 231 220 213 204 194 189 185 179 173 174 181 187 183 178 176 175 172 161 139 141 144 152 161 165 164 159 154 153 149 141 123 103 99 91 66 56 49 21 355 345 333 321
245 238 227 218 213 202 190 182 181 181 178 169 161 178 181 175 172 172 159 154 164 168 167 166 165 163 161 159 157 154 148 142 130 115 92 71 50 42 352 326 320 323 323
244 243 235 219 210 204 192 185 184 184 181 179 182 179 166 156 167 175 174 166 166 170 170 169 168 166 163 161 159 154 146 144 139 129 135 141 88 47 301 308 307 306 301
251 240 233 225 212 206 199 193 189 186 187 188 190 184 175 175 179 179 178 177 175 174 172 169 167 166 164 159 157 158 157 162 164 162 167 197 230 275 281 284 290 292 294
248 238 230 226 218 212 206 198 190 189 190 187 180 182 183 175 176 178 181 182 179 174 169 163 165 167 168 166 164 161 163 168 175 177 185 208 239 270 283 289 291 293 296
248 238 236 231 221 214 208 200 191 188 188 185 179 176 179 181 180 179 179 176 170 166 161 157 156 159 162 162 162 162 168 180 184 181 185 210 240 264 276 283 288 293 294
250 238 234 230 220 212 205 201 193 187 184 182 180 179 180 179 177 175 171 166 162 160 158 157 159 164 164 158 156 159 165 171 170 176 188 209 241 263 273 279 283 284 287
255 241 233 223 214 209 203 199 194 187 184 181 179 177 175 172 170 167 163 160 158 159 160 156 155 160 164 162 161 165 167 167 169 179 195 216 251 267 273 277 280 284 284
257 244 236 223 211 202 197 194 191 186 183 179 175 172 169 168 166 162 158 157 157 157 156 156 159 160 160 161 168 171 172 175 186 206 220 236 255 267 273 277 281 282 283